Terminal Aerodrome Forecast
Issued by NWS Buffalo, NY

Home | Current Version | Previous Version | Text Only | Print | Product List | Glossary On
Versions: 1 2 3 4 5 6 7 8 9 10 11 12 13 14 15 16 17 18 19 20 21 22 23 24
000
FTUS41 KBUF 251506 AAA
TAFART
TAF AMD
KART 251506Z 2515/2612 10008KT P6SM -SHRA BKN045 OVC080
      TEMPO 2515/2516 3SM -RA
     FM252000 10010KT P6SM VCSH OVC060
     FM260500 09005KT P6SM OVC040
     FM260800 07004KT P6SM OVC025=

USA.gov is the U.S. government's official web portal to all federal, state and local government web resources and services.